Погода в Дубинино

Россия / Красноярский край     55°37′30″N   89°05′36″E
темп.,
°C
ветер,
м/с
пор.,
м/с
влажн.,
%
обл.,
%
осадки,
мм/ч
давл.,
гПа
погр.,
м
19 мая, ср
ср1901:00+8в3592100 0.0 1007201
04:00+7св4891100 0.3 1006324
07:00+7св3694100 4.6 1006385
10:00+7ссв4668100 0.6 1006457
13:00+11ссв564640 0.6 10061649
16:00+11с6739100 0.0 10062251
19:00+10ссз464945 0.0 10081933
22:00+6ссз3862100 0.0 1009215
20 мая, чт
чт2001:00+4ссз3860100 0.0 1010280
04:00+1ссз377015 0.0 1011207
07:00+2ссз356397 0.0 1012332
10:00+5с454799 0.1 10122011
13:00+7ссз5543100 0.2 10122122
16:00+7ссз654185 0.1 10122053
19:00+7сз55415 0.1 10132115
22:00+2сз37785 0.1 1016209
21 мая, пт
пт2101:00+2зсз469195 0.1 1017427
04:00+2з4692100 0.0 1018361
07:00+2з4799100 2.1 1019347
10:00+5ссз3579100 1.0 1020903
13:00+9с355720 1.9 10211410
16:00+12сз564199 0.6 10202255
19:00+10зсз58525 0.6 1021677
22:00+6з3364100 0.0 102325
22 мая, сб
сб2201:00+5зюз3673100 0.0 1024107
04:00+4юз4875100 0.0 1024189
07:00+6зюз4107181 0.0 1024439
10:00+10зюз684790 0.0 10231894
13:00+11зюз6850100 0.0 10211958
16:00+11зюз5755100 0.1 10211612
19:00+10зсз456585 0.3 10211252
22:00+7сз3682100 0.1 1023395
23 мая, вс
вс2301:00+7юз2690100 0.4 1023950
04:00+7юз1391100 0.1 1023163
07:00+7ю1190100 0.2 102396
10:00+9юз127888 0.0 1024598
13:00+12зюз236271 0.2 10231271
16:00+14сз235521 0.0 10221289
19:00+14ссв12575 0.0 1022755
22:00+10юв22755 0.0 102219